Weather History for VTCN - December, 2013

Change the Weather History Date:

Saturday, December 14, 2013

  Actual Average Record
Temperature  
Mean Temperature 76 °F -  
Max Temperature 86 °F 85 °F - ()
Min Temperature 66 °F 57 °F - ()
Cooling Degree Days 11    
Growing Degree Days 26 (Base 50)    
Moisture  
Dew Point 66 °F    
Average Humidity 66    
Maximum Humidity 100    
Minimum Humidity 43    
Precipitation  
Precipitation 0.00 in 0.01 in - ()
Sea Level Pressure  
Sea Level Pressure 29.83 in    
Wind  
Wind Speed 1 mph ()    
Max Wind Speed 4 mph    
Max Gust Speed -    
Visibility 4.8 miles    
Events Rain    
T = Trace of Precipitation, MM = Missing Value Source: Averaged Metar Reports

Daily Weather History Graph

Daily Weather History Graph

Search for Another Location

Airport or City:

Trip Planner

Search our weather history database for the weather conditions in past years. The results will help you decide how hot, cold, wet, or windy it might be!

Date:

Astronomy

Dec. 14, 2013 Rise Set
Actual Time 6:41 AM ICT 5:42 PM ICT
Civil Twilight 6:17 AM ICT 6:05 PM ICT
Nautical Twilight 5:50 AM ICT 6:33 PM ICT
Astronomical Twilight 5:23 AM ICT 7:00 PM ICT
Moon 3:28 PM ICT (12/14) 3:48 AM ICT (12/14)
Length of Visible Light 11h 48m
Length of Day
11h 00m
Waxing Gibbous, 91% of the Moon is Illuminated
Dec 14
Waxing Gibbous
Dec 17
Full
Dec 25
Last Quarter
Jan 1
New
Jan 8
First Quarter

Hourly Weather History & Observations

Time (ICT) Temp. Heat Index Dew Point Humidity Pressure Visibility Wind Dir Wind Speed Gust Speed Precip Events Conditions
1:00 AM 72 °F - 69 °F 88% 29.89 in 6 mi Calm Calm - -   Overcast
4:00 AM 71 °F - 69 °F 89% 29.87 in 5 mi Calm Calm - -   Mist
7:00 AM 70 °F - 69 °F 94% 29.89 in 1 mi Calm Calm - -   Mist
8:00 AM 69.8 °F - 69.8 °F 100% 29.89 in 1.6 mi Variable 1.2 mph - N/A   Overcast
9:00 AM 73.4 °F - 69.8 °F 88% 29.92 in 1.9 mi Variable 2.3 mph - N/A   Overcast
10:00 AM 77 °F - 70 °F 73% 29.91 in 4 mi Calm Calm - -   Mist
10:00 AM 80.6 °F 83.2 °F 68.0 °F 65% 29.92 in 2.5 mi Variable 2.3 mph - N/A   Mostly Cloudy
11:00 AM 82.4 °F 83.4 °F 62.6 °F 51% 29.89 in 4.3 mi Variable 1.2 mph - N/A   Partly Cloudy
12:00 PM 86.0 °F 87.3 °F 64.4 °F 48% 29.86 in 4.3 mi Variable 3.5 mph - N/A   Partly Cloudy
1:00 PM 84 °F - 69 °F 52% 29.79 in 6 mi Calm Calm - -   Partly Cloudy
1:00 PM 84.2 °F 85.0 °F 62.6 °F 48% 29.80 in 6.2 mi Variable 3.5 mph - N/A Rain Rain Showers
2:00 PM 84.2 °F 85.0 °F 62.6 °F 48% 29.77 in 6.2 mi Variable 2.3 mph - N/A Rain Rain Showers
3:00 PM 84.2 °F 84.4 °F 60.8 °F 45% 29.77 in 6.2 mi Variable 3.5 mph - N/A Rain Rain Showers
4:00 PM 86 °F - 68 °F 46% 29.75 in 7 mi Calm Calm - -   Partly Cloudy
4:00 PM 86.0 °F 86.1 °F 60.8 °F 43% 29.77 in 6.2 mi Variable 3.5 mph - N/A   Scattered Clouds
5:00 PM 84.2 °F 84.4 °F 60.8 °F 45% 29.77 in 6.2 mi Variable 2.3 mph - N/A   Scattered Clouds
6:00 PM 77.0 °F - 64.4 °F 65% 29.77 in 5.0 mi Variable 1.2 mph - N/A   Scattered Clouds
7:00 PM 79 °F - 69 °F 64% 29.80 in 6 mi Calm Calm - -  
7:00 PM 73.4 °F - 68.0 °F 83% 29.80 in 5.0 mi Variable 2.3 mph - N/A   Scattered Clouds
8:00 PM 75.2 °F - 66.2 °F 73% 29.83 in 5.0 mi Variable 2.3 mph - N/A   Scattered Clouds
10:00 PM 74 °F - 68 °F 77% 29.85 in 6 mi Calm Calm - -   Partly Cloudy